Погода в Кайсери

Турция     38°43′18″N   35°29′14″E
темп.,
°C
ветер,
м/с
пор.,
м/с
влажн.,
%
обл.,
%
осадки,
мм/ч
давл.,
гПа
погр.,
м
21 апреля, ср
ср2100:00+11сз22520 0.0 101225
03:00+9з22475 0.0 101213
06:00+8з22450 0.0 101412
09:00+12сз11340 0.0 1015537
12:00+16сз33340 0.0 10141543
15:00+19сз56312 0.0 10121966
18:00+17сз553233 0.0 10121366
21:00+13зсз224325 0.0 101415
22 апреля, чт
чт2200:00+11зюз22466 0.0 101617
03:00+10зсз11502 0.0 101610
06:00+8з11575 0.0 101710
09:00+13зсз123933 0.0 1018575
12:00+17зсз44349 0.0 10171975
15:00+18сз782832 0.0 10162807
18:00+16сз672753 0.0 10172491
21:00+12зюз22390 0.0 102019
23 апреля, пт
пт2300:00+10зюз22410 0.0 102111
03:00+8з01465 0.0 102010
06:00+7вюв114787 0.0 102110
09:00+13в122861 0.0 1020675
12:00+17ссз22176 0.0 10181376
15:00+20сз341782 0.0 10161750
18:00+20ссз331940 0.0 1015905
21:00+15юз223040 0.0 101711
24 апреля, сб
сб2400:00+13ююв11355 0.0 101611
03:00+12з333711 0.0 101716
06:00+10з11555 0.0 101810
09:00+15сз12405 0.0 1018650
12:00+19сз343366 0.0 10161453
15:00+21сз4431100 0.0 10141829
18:00+20ссз223297 0.0 10131566
21:00+16зсз115064 0.0 101411
25 апреля, вс
вс2500:00+14ссз1158100 0.0 101411
03:00+13всв225814 0.0 101217
06:00+13ссз2258100 0.0 101216
09:00+16зсз4452100 0.0 1013791
12:00+19зсз654777 0.0 10121560
15:00+15зсз6864100 0.1 1013973
18:00+14всв2364100 0.1 1011522
21:00+13сз3271100 0.2 101138